Temperature
26 22 22 22 23 24 25 25 25 27 29 28 27 27 26 26 26 25 24 23 23 24 24 24 23 23 22 22 21 21 21 20 20 20 20 19 19 19 19 19 19 19 19 18
23 22 23 24 25 26 26 25 25 27 28 28 27 27 26 25 25 25 24 24 24 23 23 23 23 23 22 22 22 21 21 21 20 20 20 20 19 19 19 19 19 18 18 18
22 23 25 26 25 26 26 25 26 27 28 28 27 26 25 25 25 25 25 24 24 24 23 23 23 23 22 22 22 21 21 21 20 20 19 19 19 19 18 18 18 18 18 18
23 25 26 26 26 26 25 27 28 28 26 24 26 24 24 24 24 24 24 24 24 24 23 23 23 23 22 22 22 21 21 20 20 20 19 19 19 19 19 19 19 19 18 18
23 25 25 26 26 27 26 27 27 27 26 24 24 23 22 23 23 23 23 24 24 24 23 23 23 23 23 22 22 21 21 20 20 19 19 19 19 19 19 19 19 18 18 18
24 26 26 26 27 28 28 27 25 22 21 22 23 23 22 22 22 23 23 24 23 23 24 24 23 23 22 22 21 21 20 20 20 19 19 19 19 19 18 18 18 18 18 18
24 25 26 27 27 27 27 23 21 22 20 21 22 23 21 23 23 23 23 23 23 23 23 23 23 23 22 21 21 21 20 20 19 19 19 19 18 18 18 18 18 18 18 18
22 23 25 27 26 25 24 22 21 22 21 21 22 22 22 23 23 24 24 24 23 23 23 23 23 23 22 22 21 21 20 20 19 19 19 18 18 18 18 18 18 18 18 18
21 22 26 27 27 26 25 22 21 20 21 21 21 22 22 23 23 23 23 23 22 23 23 22 22 22 22 21 21 21 20 20 19 19 19 18 18 18 18 18 18 18 18 18
22 23 25 27 27 26 25 23 20 20 21 21 22 22 21 22 22 22 21 22 22 22 22 22 22 22 22 21 21 20 20 20 19 19 19 18 18 18 18 18 18 18 18 18
23 23 23 25 25 25 25 24 21 19 19 20 21 21 22 21 21 21 21 22 22 22 22 22 22 22 21 21 20 20 20 19 19 19 19 18 18 18 18 18 18 18 18 17
22 21 21 23 25 26 25 23 21 21 20 19 19 20 22 21 21 21 21 21 22 22 22 22 22 21 21 21 20 20 19 19 19 19 18 18 18 18 18 18 18 18 17 17
22 20 21 22 23 24 25 24 21 20 19 18 20 21 21 20 20 21 21 21 21 21 21 21 21 21 20 20 20 19 19 19 19 18 18 18 18 18 17 17 17 17 17 17
23 19 20 21 22 23 24 25 23 20 19 20 20 21 21 20 20 20 20 20 21 21 21 21 20 20 20 20 19 19 19 19 18 18 18 18 18 17 17 17 17 17 17 17
21 20 21 22 24 25 25 25 24 22 21 21 21 20 20 20 19 19 20 20 20 20 20 20 20 20 19 19 19 19 19 18 18 18 18 18 17 17 17 17 17 17 17 17
19 20 21 23 24 25 25 25 25 24 23 22 21 20 20 20 20 19 19 19 19 19 20 20 20 20 19 19 19 19 18 18 18 18 18 17 17 17 17 17 17 17 16 16
18 19 19 20 23 23 23 23 24 24 23 22 21 20 19 18 18 18 19 19 19 19 19 19 19 19 19 19 19 18 18 18 18 18 17 17 17 17 17 17 16 16 16 16
18 18 17 19 21 22 21 22 23 23 23 22 21 20 19 18 18 19 19 19 19 19 19 19 19 19 18 18 18 18 18 18 17 17 17 17 17 17 16 16 16 16 16 16
17 18 17 17 19 20 22 22 22 22 21 21 20 19 18 18 18 17 18 19 19 19 19 19 19 18 18 18 18 18 18 17 17 17 17 17 17 16 16 16 16 15 15 15
17 17 17 17 19 20 21 21 22 21 19 20 19 18 18 18 17 17 18 19 19 18 18 18 18 18 18 18 17 17 17 17 17 17 16 16 16 16 16 15 15 15 15 15
17 17 17 17 19 19 20 20 22 21 19 19 19 18 18 18 18 18 18 18 18 18 18 18 18 17 17 17 17 17 17 16 16 16 16 16 16 15 15 15 15 14 14 14
16 16 17 16 18 18 18 19 19 18 18 18 18 18 18 18 17 18 18 17 17 17 17 17 17 17 16 17 17 16 16 16 16 15 15 15 15 15 14 14 14 14 14 14
15 15 15 15 16 16 17 17 18 18 18 18 18 18 18 17 17 17 17 16 17 17 16 16 16 16 16 16 16 16 15 15 15 15 15 15 14 14 14 14 13 13 13 13
15 14 14 15 15 16 16 17 18 19 19 18 18 18 18 17 17 16 16 16 16 16 16 16 16 15 15 15 15 15 15 15 15 14 14 14 14 13 13 13 13 13 12 12
14 14 14 14 15 15 16 17 17 18 18 18 17 17 17 17 16 16 16 15 15 15 15 15 15 15 14 14 14 14 14 14 14 14 13 13 13 13 13 12 12 12 12 12
13 14 14 14 14 14 15 16 17 17 17 17 16 16 16 16 16 15 15 15 15 14 14 14 14 14 14 14 14 13 13 13 14 13 13 13 13 12 12 12 12 11 11 11
Wind_Speed
3 3 6 9 9 8 6 8 10 11 8 2 6 7 10 13 15 15 14 14 14 14 12 12 13 13 12 12 13 13 12 11 9 6 6 5 5 5 5 5 9 11 11 11
0 7 12 9 7 7 8 10 10 10 6 1 5 5 5 10 15 17 17 16 14 11 10 12 11 12 13 14 13 12 12 12 10 8 6 4 4 4 5 4 7 11 12 11
10 8 7 9 9 9 10 8 8 8 6 5 4 3 1 2 5 9 11 12 13 16 16 15 15 14 13 13 14 13 12 11 10 8 5 4 3 2 3 4 5 8 12 12
8 11 9 9 10 9 9 9 7 6 1 3 2 1 6 4 3 8 11 11 12 11 11 13 14 14 14 13 12 11 11 11 9 9 8 8 6 6 6 6 6 7 10 10
8 8 10 11 13 10 9 9 5 3 1 2 3 2 7 3 3 7 11 12 11 11 11 12 13 13 12 11 11 10 10 10 9 9 10 9 7 6 4 4 6 7 7 8
10 8 8 11 11 9 8 2 5 6 6 1 4 3 6 5 7 9 10 11 11 10 9 8 8 9 9 9 10 10 10 8 8 9 9 9 9 7 6 6 7 6 5 6
7 10 8 6 6 6 3 5 4 5 4 5 4 3 7 7 6 9 10 10 9 9 9 8 9 9 9 10 10 10 10 8 8 8 8 9 9 9 9 7 7 7 6 6
6 8 8 7 9 8 6 10 8 6 5 5 4 3 5 5 2 3 6 8 8 8 8 9 10 10 10 10 10 10 10 8 8 8 8 7 7 7 6 7 6 7 6 7
8 8 8 8 8 10 7 6 10 8 3 1 4 4 5 3 3 4 5 7 8 8 8 8 8 8 8 9 9 9 9 7 7 7 6 5 6 6 6 6 6 5 5 6
9 6 8 7 3 4 10 9 7 6 5 3 4 3 4 3 3 3 4 5 5 7 8 8 8 8 7 7 7 7 7 7 6 6 6 5 4 5 5 5 5 5 5 5
10 6 7 2 6 9 5 5 6 6 7 7 3 6 6 7 6 7 7 7 9 10 10 8 7 6 6 6 6 7 6 6 5 6 5 4 4 4 3 3 4 4 4 4
9 7 6 8 7 9 8 9 9 7 5 6 5 6 3 5 6 8 8 7 8 10 9 8 7 6 6 6 6 7 6 6 6 6 5 4 3 3 3 2 3 3 3 2
9 7 3 6 6 1 5 6 8 8 6 6 5 5 0 4 6 6 9 9 9 9 8 7 6 6 5 5 5 5 6 5 5 5 5 4 3 3 2 2 2 2 2 2
8 6 8 10 9 6 5 5 6 8 6 6 7 7 4 4 8 7 8 10 10 9 9 7 6 5 4 4 4 5 5 5 5 5 4 4 3 3 2 2 2 2 2 3
7 5 5 6 6 5 5 6 6 7 9 9 9 10 11 9 10 9 8 10 11 9 8 8 6 5 4 3 2 3 4 4 5 5 4 4 3 3 3 3 3 3 3 3
4 5 3 2 2 1 1 3 5 6 6 7 8 5 5 7 7 8 7 10 10 9 8 8 6 5 4 4 3 3 3 4 5 5 4 4 4 4 4 3 4 4 5 5
3 4 4 2 2 3 2 4 5 5 5 9 9 8 11 10 10 9 9 9 9 8 7 7 6 4 4 4 4 4 4 4 5 5 5 5 5 5 4 5 5 6 5 6
4 4 4 2 2 4 8 4 3 5 2 5 8 12 14 13 10 7 7 9 8 7 7 6 5 4 4 4 4 4 4 5 5 5 4 5 6 6 5 6 6 6 6 6
5 6 4 4 3 3 5 2 2 4 1 2 11 14 14 14 11 6 5 8 8 5 4 5 5 5 5 5 5 6 5 5 5 5 5 5 6 7 7 7 7 6 7 7
5 6 5 4 4 5 6 4 1 7 1 1 9 16 16 11 7 5 7 9 9 8 5 5 6 7 6 5 6 7 6 6 5 5 6 6 6 7 8 7 7 6 7 7
3 3 4 4 3 5 5 5 2 5 6 4 8 12 10 6 7 9 9 9 9 9 8 7 8 7 5 5 7 8 7 6 5 6 8 8 7 8 8 8 7 8 8 9
2 2 3 4 4 6 5 3 3 4 3 7 8 8 9 11 13 12 11 10 10 10 9 9 8 7 6 6 8 9 7 6 6 8 9 9 8 7 8 8 8 8 8 9
1 2 3 4 4 3 2 2 2 5 8 7 8 9 13 14 13 12 11 10 9 10 10 9 9 9 8 7 8 9 6 6 8 10 10 9 10 9 8 8 8 7 7 7
2 1 1 2 1 2 5 6 6 6 8 9 12 12 13 14 14 14 12 11 10 9 9 9 10 10 8 7 7 7 6 8 10 11 10 9 10 10 10 8 7 7 6 6
2 1 2 2 2 4 6 6 7 8 10 12 11 11 12 15 15 14 12 11 9 9 8 8 9 9 8 6 7 6 6 9 11 11 10 10 9 10 10 10 8 7 5 4
1 3 4 4 4 3 1 2 7 10 10 12 13 11 10 12 14 13 12 10 10 10 9 9 9 9 8 7 7 6 6 8 11 10 9 8 8 8 8 10 10 15 12 14
Wind_Direction
206 131 217 226 211 211 255 283 288 285 284 223 187 179 179 179 173 174 179 181 185 191 189 176 172 173 171 171 172 174 172 173 167 167 169 170 179 182 178 185 185 186 190 187
257 238 229 227 239 247 260 274 283 295 302 179 177 181 176 174 177 178 180 185 185 181 181 175 169 175 177 177 178 177 177 176 177 179 177 172 167 181 185 188 192 193 196 192
204 235 222 224 246 252 264 251 260 272 312 11 85 10 326 235 171 170 176 178 177 181 182 179 176 181 183 182 180 180 180 180 179 171 160 152 143 148 172 190 198 200 199 197
234 245 246 234 240 229 258 252 253 269 329 305 79 239 285 257 178 170 175 178 177 179 184 182 179 181 185 184 178 176 178 178 177 171 174 176 185 194 200 195 197 202 202 199
237 226 225 231 234 223 232 256 260 263 139 3 7 124 279 293 194 191 182 181 177 177 183 183 180 180 181 176 172 172 173 179 181 182 183 185 197 202 197 192 194 201 204 201
250 258 223 222 233 225 225 290 10 43 69 351 260 162 268 248 210 193 188 181 173 175 180 174 172 166 167 168 169 171 172 182 184 187 189 192 196 195 194 200 202 204 209 210
277 273 254 228 225 253 174 103 27 354 6 255 268 173 248 257 216 189 179 175 172 171 167 161 163 163 162 166 170 173 175 184 187 188 195 198 200 197 200 203 203 202 206 211
220 265 248 218 194 198 187 145 160 189 220 275 323 223 264 283 242 164 162 161 158 164 162 165 164 160 162 168 170 172 177 183 186 191 199 201 200 199 201 201 201 203 205 210
197 242 262 230 196 165 169 173 167 143 179 241 288 291 326 16 60 100 133 143 158 166 166 163 157 156 158 163 167 170 175 181 186 192 193 194 195 197 203 203 203 206 206 210
181 236 273 245 186 185 169 164 111 126 164 236 279 261 222 222 182 138 139 155 163 162 157 157 156 158 160 160 159 160 164 174 178 176 181 187 194 200 203 197 198 201 207 208
182 204 283 305 187 198 167 149 132 140 156 163 228 266 219 200 184 168 173 170 167 159 153 156 154 154 148 145 150 155 161 163 167 170 174 178 189 193 184 186 194 198 203 202
179 164 238 254 241 195 173 176 153 161 205 164 171 258 262 169 168 165 161 153 149 147 144 143 141 133 134 140 147 153 161 170 172 170 164 171 179 172 167 184 197 189 190 199
164 150 197 308 320 258 178 178 167 149 139 155 167 246 312 112 129 148 142 134 127 126 123 124 123 126 135 139 142 149 160 170 165 157 154 158 159 155 164 181 176 157 157 161
142 136 170 198 213 200 197 199 169 140 160 188 199 202 215 165 142 138 132 127 125 124 123 120 115 114 118 125 138 144 149 153 146 142 148 154 156 155 162 156 149 145 135 128
121 152 182 200 200 177 196 203 185 175 180 179 201 188 199 185 158 141 130 123 120 119 116 115 115 114 118 114 116 125 129 141 140 142 150 157 160 145 128 125 129 124 115 112
74 133 152 254 236 150 234 239 202 188 171 159 152 193 183 138 125 119 126 129 130 131 126 124 122 124 128 126 130 119 119 131 135 142 142 135 128 122 118 114 109 101 95 88
51 107 108 240 308 65 279 249 216 200 177 159 178 188 150 141 142 147 146 139 135 140 138 134 133 136 136 139 143 140 135 127 127 129 128 125 121 112 108 105 101 98 95 90
122 104 121 140 89 203 239 252 177 162 165 158 148 151 153 144 132 125 134 131 132 142 142 137 132 129 127 129 134 127 119 120 124 123 120 122 120 113 104 101 97 87 84 86
135 130 116 126 167 257 286 314 102 121 4 129 140 141 133 125 101 87 119 127 130 137 138 129 124 117 110 114 117 111 109 108 116 124 124 123 125 119 111 105 101 96 93 84
75 104 117 126 152 213 246 279 252 107 76 191 145 149 149 138 133 167 151 129 121 117 112 109 106 96 100 108 107 101 99 101 106 115 118 114 115 116 112 109 102 95 92 89
39 58 128 150 181 247 269 292 58 135 205 173 147 149 150 149 152 147 134 118 116 114 108 103 98 91 93 101 103 101 97 97 97 100 102 99 100 105 107 102 96 95 93 91
154 151 173 146 169 240 313 24 133 180 148 137 134 135 123 117 119 123 121 117 114 110 105 104 100 90 82 87 98 98 96 97 92 91 95 94 91 97 100 99 95 94 99 96
100 181 189 178 197 246 355 107 137 127 124 125 126 130 127 123 124 123 119 116 113 110 107 105 103 94 81 78 93 101 101 102 98 91 91 92 85 78 82 91 95 92 91 95
324 12 100 77 53 50 62 73 70 84 111 119 125 132 132 128 128 123 119 115 111 106 104 102 102 96 86 77 81 95 102 104 103 99 95 91 88 80 69 68 73 85 87 94
263 23 59 79 97 50 44 71 88 91 99 108 112 119 130 127 126 125 122 120 116 110 103 101 102 101 95 87 85 92 102 109 107 103 100 95 92 93 85 74 61 67 56 86
232 165 158 196 199 152 182 110 101 102 109 119 119 107 108 118 120 120 120 117 114 111 108 104 100 100 97 94 87 84 95 110 113 110 107 106 104 100 101 99 80 56 63 69
Height
1486 1493 1499 1495 1494 1495 1496 1499 1499 1488 1475 1478 1482 1484 1484 1485 1488 1491 1493 1496 1498 1501 1505 1508 1511 1514 1517 1519 1521 1524 1526 1529 1531 1533 1535 1537 1539 1541 1543 1545 1547 1549 1551 1553
1491 1495 1487 1486 1487 1490 1493 1498 1496 1486 1474 1476 1481 1483 1481 1482 1484 1486 1489 1492 1495 1499 1503 1505 1508 1511 1513 1516 1518 1521 1523 1526 1528 1530 1532 1535 1536 1538 1541 1542 1544 1546 1548 1550
1492 1486 1480 1484 1487 1491 1492 1495 1492 1489 1479 1476 1481 1490 1487 1483 1482 1485 1487 1490 1492 1495 1498 1501 1504 1507 1510 1513 1515 1518 1521 1523 1525 1528 1530 1532 1534 1535 1537 1539 1540 1543 1545 1547
1485 1479 1479 1483 1485 1486 1494 1481 1481 1482 1490 1499 1491 1513 1495 1487 1484 1484 1485 1488 1490 1493 1496 1498 1500 1503 1506 1509 1513 1516 1518 1520 1522 1524 1526 1527 1529 1530 1532 1534 1537 1539 1542 1543
1482 1474 1477 1481 1478 1477 1482 1474 1477 1480 1489 1500 1499 1510 1504 1489 1489 1485 1483 1485 1488 1490 1493 1496 1498 1500 1504 1508 1510 1513 1515 1517 1519 1521 1522 1524 1525 1527 1529 1531 1534 1536 1538 1540
1475 1469 1470 1470 1468 1469 1471 1476 1482 1491 1502 1518 1505 1509 1509 1494 1486 1482 1481 1482 1485 1488 1491 1493 1496 1499 1503 1506 1509 1511 1513 1514 1516 1518 1519 1520 1521 1523 1525 1527 1529 1532 1534 1536
1478 1469 1464 1463 1469 1468 1472 1495 1517 1518 1528 1524 1504 1506 1505 1483 1477 1476 1478 1481 1483 1487 1490 1492 1495 1497 1501 1504 1507 1509 1510 1512 1513 1514 1515 1517 1518 1520 1521 1523 1525 1527 1529 1531
1488 1485 1464 1460 1465 1473 1476 1490 1518 1529 1531 1523 1504 1507 1495 1478 1475 1475 1477 1480 1484 1487 1488 1491 1494 1496 1499 1502 1504 1506 1508 1509 1510 1511 1512 1514 1515 1516 1518 1520 1522 1523 1525 1527
1484 1481 1458 1454 1453 1461 1474 1485 1488 1508 1514 1521 1516 1502 1489 1478 1477 1476 1479 1481 1483 1486 1489 1491 1494 1496 1498 1500 1502 1504 1505 1507 1508 1509 1510 1511 1512 1513 1514 1516 1518 1520 1521 1523
1468 1476 1460 1451 1452 1455 1461 1471 1493 1508 1523 1528 1516 1507 1502 1488 1483 1479 1480 1482 1484 1487 1490 1492 1494 1496 1498 1500 1501 1503 1504 1505 1506 1507 1508 1509 1510 1511 1512 1513 1515 1516 1517 1519
1459 1473 1467 1458 1460 1464 1465 1473 1484 1501 1508 1522 1526 1513 1483 1481 1479 1479 1480 1482 1484 1487 1489 1491 1494 1497 1498 1500 1501 1502 1503 1505 1505 1506 1507 1508 1508 1509 1510 1511 1512 1513 1514 1515
1453 1468 1476 1464 1451 1447 1455 1466 1480 1499 1505 1509 1515 1508 1475 1476 1477 1477 1479 1482 1484 1486 1488 1491 1494 1496 1498 1499 1501 1501 1502 1504 1504 1505 1506 1507 1508 1508 1508 1509 1509 1510 1511 1512
1449 1466 1481 1477 1468 1455 1456 1459 1467 1479 1495 1506 1512 1502 1477 1477 1478 1478 1479 1482 1484 1487 1490 1492 1494 1496 1498 1499 1500 1501 1502 1503 1504 1505 1506 1506 1507 1506 1507 1508 1508 1509 1510 1510
1438 1459 1471 1479 1473 1461 1459 1457 1461 1476 1493 1498 1496 1490 1482 1479 1478 1480 1481 1482 1484 1487 1490 1492 1494 1496 1498 1500 1500 1501 1501 1502 1503 1504 1505 1506 1506 1506 1506 1507 1507 1508 1509 1509
1437 1455 1456 1455 1450 1450 1452 1454 1456 1466 1474 1484 1483 1482 1478 1475 1476 1478 1481 1482 1485 1488 1490 1492 1494 1496 1498 1499 1500 1500 1501 1502 1503 1504 1505 1505 1506 1506 1506 1506 1506 1507 1508 1508
1440 1451 1453 1453 1447 1447 1452 1451 1452 1457 1461 1468 1473 1477 1471 1474 1475 1478 1481 1482 1485 1487 1489 1491 1494 1496 1497 1498 1499 1499 1501 1502 1503 1504 1505 1505 1506 1506 1506 1506 1506 1506 1507 1507
1446 1451 1462 1466 1453 1453 1464 1454 1452 1453 1454 1460 1470 1470 1470 1474 1475 1477 1480 1482 1483 1486 1488 1490 1492 1494 1496 1498 1499 1499 1500 1502 1503 1504 1505 1505 1506 1506 1506 1506 1506 1506 1507 1507
1446 1454 1464 1468 1463 1475 1463 1446 1445 1449 1452 1452 1456 1461 1465 1469 1473 1477 1480 1482 1484 1487 1488 1490 1492 1494 1495 1497 1498 1499 1500 1501 1502 1503 1505 1506 1506 1506 1506 1507 1507 1507 1507 1508
1439 1450 1463 1473 1474 1469 1455 1447 1447 1452 1458 1452 1456 1461 1466 1470 1474 1480 1481 1482 1483 1486 1488 1490 1492 1493 1495 1497 1497 1498 1499 1501 1502 1503 1505 1506 1506 1507 1507 1507 1508 1508 1509 1509
1441 1446 1460 1470 1473 1476 1459 1446 1443 1449 1463 1455 1454 1459 1463 1467 1477 1481 1480 1480 1482 1485 1489 1491 1492 1493 1495 1497 1498 1498 1499 1501 1502 1504 1505 1506 1507 1507 1508 1508 1509 1510 1510 1510
1452 1456 1462 1468 1470 1465 1451 1445 1444 1462 1463 1455 1456 1458 1461 1464 1469 1475 1479 1481 1483 1485 1488 1490 1492 1493 1495 1497 1498 1499 1500 1501 1502 1504 1505 1506 1507 1508 1508 1509 1510 1510 1511 1512
1459 1462 1463 1465 1470 1468 1449 1447 1451 1454 1451 1453 1457 1459 1461 1464 1469 1474 1478 1481 1483 1485 1488 1490 1492 1493 1495 1497 1498 1499 1500 1502 1503 1504 1505 1506 1507 1508 1510 1510 1511 1512 1513 1513
1457 1458 1459 1460 1462 1454 1449 1449 1449 1448 1450 1453 1457 1460 1462 1465 1470 1475 1479 1482 1485 1487 1489 1491 1493 1494 1496 1498 1499 1500 1501 1503 1504 1505 1506 1507 1508 1509 1510 1512 1513 1514 1515 1515
1455 1454 1456 1458 1456 1453 1451 1451 1451 1451 1451 1454 1457 1461 1464 1467 1471 1475 1480 1483 1487 1489 1490 1492 1494 1495 1497 1499 1501 1501 1502 1503 1504 1505 1506 1508 1509 1510 1512 1513 1515 1516 1517 1518
1455 1454 1457 1458 1456 1455 1454 1453 1454 1454 1455 1457 1460 1462 1465 1467 1471 1476 1480 1484 1487 1490 1492 1494 1495 1496 1499 1501 1502 1503 1504 1505 1505 1506 1508 1509 1511 1512 1514 1515 1517 1518 1519 1521
1453 1454 1457 1458 1456 1457 1457 1455 1455 1455 1456 1459 1461 1465 1469 1470 1473 1477 1481 1485 1489 1491 1494 1496 1497 1498 1500 1502 1503 1504 1505 1506 1507 1508 1509 1511 1513 1515 1516 1517 1519 1521 1522 1523